Weather in Andeg

Russia / Nenets Autonomous Okrug     67°53′25″N   53°12′55″E
temp.,
°C
wind,
m/s
gust,
m/s
humid.,
%
clouds,
%
prec.,
mm/h
press.,
hPa
HPBL,
m
27 february, sat
sat2700:00−19s7129499 0.0 1010330
03:00−20s61295100 0.1 1011297
06:00−21s61295100 0.0 1010278
09:00−20s71293100 0.0 1011335
12:00−20s71192100 0.0 1011370
15:00−19s61192100 0.0 1010386
18:00−18s61195100 0.1 1009371
21:00−17ssw6996100 0.5 1009375
28 february, sun
sun2800:00−16ssw5996100 0.6 1008351
03:00−15ssw4896100 1.1 1008290
06:00−17ssw469892 0.1 1008117
09:00−18ssw479795 0.1 1008167
12:00−18ssw479691 0.0 1009192
15:00−17ssw469685 0.1 1009105
18:00−18s459884 0.0 100958
21:00−17s459888 0.1 100971
1 march, mon
mon100:00−15s5797100 0.1 1007122
03:00−11ssw61095100 0.2 1005268
06:00−11ssw81394100 0.1 1002338
09:00−10ssw101593100 0.5 998471
12:00−8ssw101693100 0.8 994604
15:00−7ssw91594100 1.6 991601
18:00−6ssw91495100 1.6 988524
21:00−4ssw61096100 3.1 987294
2 march, tue
tue200:00−1wsw3796100 0.1 987220
03:00−1wsw3698100 0.6 987219
06:00−6wsw459692 0.1 98789
09:00−8sw459686 0.1 988107
12:00−6ssw4696100 0.1 988192
15:00−7s3497100 0.1 98869
18:00−4s369498 0.1 987267
21:00−7se449796 0.1 98881
3 march, wed
wed300:00−7sse239797 0.1 98924
03:00−8se119795 0.5 99021
06:00−8wnw229696 0.3 99038
09:00−9nw489489 0.6 991233
12:00−9nw589487 0.3 992410
15:00−9nw379590 0.5 992320
18:00−11wnw479589 0.2 992164
21:00−11w369592 0.3 993142